[[{"header":{"parameterUnit":"m.s-1","parameterCategory":2,"la1":30.2991,"la2":30.254,"lo1":-89.0895,"lo2":-89.0444,"dy":0.0017,"dx":0.0017,"nx":28,"ny":28,"refTime":"2025-01-11T09:00:00:Z","depth":"0","parameterNumber":2,"parameterNumberName":"U-component_of_CURRENTS"},"data":[0,0,0,0,0,0,0,0,0,0,0,0,0,0,0,0,0,0,0,0,0,0,0,0,0,0,0,0,0,0,0,0,0,0,0,0,0,0,0,0,0,0,0,0,0,0,0,0,0,0,0,0,0,0,0,0,0,0,-0.3145,-0.3146,0,-0.3157,-0.3157,-0.3157,-0.3105,-0.3104,-0.3103,-0.3102,-0.3034,-0.3034,-0.3033,0,0,0,0,0,0,0,0,0,0,0,0,0,-0.3081,-0.3082,-0.3145,-0.3146,-0.3146,-0.3157,-0.3157,-0.3157,-0.3106,-0.3104,-0.3103,-0.3101,-0.3035,-0.3034,-0.3033,0,0,0,0,0,0,0,0,0,0,0,0,0,-0.3099,-0.3083,-0.3145,-0.3124,-0.3123,-0.3157,-0.3157,-0.3156,-0.3106,-0.3104,-0.3102,-0.3101,-0.3035,-0.3034,-0.3033,-0.3063,0,0,-0.303,-0.3029,0,0,0,0,0,0,0,0,-0.3098,-0.3101,-0.3127,-0.3126,-0.3124,-0.313,-0.3109,-0.3122,-0.3106,-0.3109,-0.3102,-0.31,-0.3063,-0.3059,-0.3062,-0.306,-0.3057,-0.303,-0.3029,-0.3029,-0.3028,0,0,0,0,0,0,0,-0.3097,-0.3101,-0.3147,-0.3128,-0.3126,-0.3115,-0.3115,-0.3112,-0.3092,-0.3109,-0.3106,-0.3113,-0.306,-0.3063,-0.306,-0.3056,-0.303,-0.3029,-0.3028,-0.3028,-0.3064,-0.3066,0,0,0,0,0,0,-0.3104,-0.31,-0.3146,-0.3147,-0.311,-0.3118,-0.3118,-0.3128,-0.3094,-0.3088,-0.3114,-0.311,-0.3066,-0.3061,-0.3057,-0.3082,-0.3029,-0.3028,-0.3027,-0.3063,-0.3065,-0.3066,0,0,0,0,0,0,-0.3103,-0.3109,-0.3146,-0.3126,-0.313,-0.3121,-0.3132,-0.3129,-0.3126,-0.3099,-0.3091,-0.3114,-0.3064,-0.3059,-0.3055,-0.3079,-0.3027,-0.3026,-0.3061,-0.3063,-0.3065,-0.3136,0,0,0,0,0,0,-0.3101,-0.3108,-0.3112,-0.3127,-0.3132,-0.317,-0.3134,-0.3131,-0.3135,-0.3129,-0.3097,-0.3089,-0.3062,-0.3057,-0.3054,-0.3076,-0.3026,-0.3059,-0.3062,-0.3065,-0.3132,-0.3141,-0.3148,0,0,0,0,0,-0.3099,-0.3119,-0.3112,-0.3118,-0.314,-0.3172,-0.3173,-0.3158,-0.3137,-0.3146,-0.3121,-0.309,-0.3073,-0.3057,-0.3053,-0.3076,-0.3057,-0.3061,-0.3064,-0.3128,-0.3139,-0.3148,0,0,0,0,0,0,-0.3092,-0.3117,-0.3109,-0.3134,-0.3152,-0.3164,-0.3172,-0.3165,-0.3156,-0.3143,-0.3108,-0.31,-0.3107,-0.3087,-0.307,-0.3097,-0.3062,-0.3065,-0.3111,-0.3121,-0.3129,-0.3126,-0.3025,0,0,0,0,0,-0.3095,-0.3112,-0.3136,-0.3153,-0.3165,-0.3169,-0.3177,-0.3173,-0.3171,-0.3164,-0.3144,-0.3126,-0.3123,-0.3116,-0.3108,-0.3124,-0.3091,-0.3138,-0.3146,-0.3153,-0.315,-0.3129,-0.3135,-0.3078,-0.3078,-0.3078,0,0,-0.3095,-0.3112,-0.3119,-0.3152,-0.316,-0.3194,-0.3168,-0.3189,-0.321,-0.316,-0.317,-0.3153,-0.3134,-0.3149,-0.3151,-0.3132,-0.3154,-0.3158,-0.3164,-0.3156,-0.3133,-0.3139,-0.3143,-0.308,-0.308,-0.3079,0,0,-0.3114,-0.3122,-0.3146,-0.317,-0.3196,-0.3208,-0.3217,-0.3235,-0.3232,-0.325,-0.322,-0.3215,-0.3211,-0.3202,-0.3198,-0.3249,-0.3198,-0.3252,-0.3288,-0.3269,-0.3273,-0.3276,-0.3244,-0.3243,-0.3255,-0.3255,-0.3256,0,-0.3111,-0.3144,-0.3158,-0.3195,-0.3214,-0.3219,-0.3253,-0.3268,-0.3279,-0.3279,-0.3259,-0.3253,-0.3237,-0.3252,-0.3271,-0.3266,-0.324,-0.3251,-0.3278,-0.3281,-0.3282,-0.3248,-0.3247,-0.3259,-0.3259,-0.3258,-0.3258,0,-0.3151,-0.318,-0.32,-0.3244,-0.3273,-0.3302,-0.3333,-0.3349,-0.3344,-0.3348,-0.3355,-0.3334,-0.3323,-0.3331,-0.3317,-0.3333,-0.3305,-0.329,-0.3249,-0.3292,-0.3254,-0.3251,-0.3265,-0.3263,-0.3262,-0.3261,0,0,-0.3121,-0.3211,-0.3211,-0.3236,-0.3297,-0.3318,-0.337,-0.3404,-0.3415,-0.3422,-0.343,-0.3436,-0.3409,-0.3403,-0.3384,-0.3374,-0.3372,-0.3344,-0.3341,-0.3304,-0.3318,-0.3231,-0.3219,-0.336,-0.336,-0.336,-0.3287,0,-0.3137,-0.3207,-0.3253,-0.3307,-0.3341,-0.3378,-0.3421,-0.3452,-0.3463,-0.3474,-0.3462,-0.3459,-0.3443,-0.3429,-0.3424,-0.3385,-0.3367,-0.3392,-0.3288,-0.3285,-0.3196,-0.3214,-0.3092,-0.301,-0.3283,-0.3283,-0.3282,0,-0.3144,-0.319,-0.3252,-0.3326,-0.3343,-0.3379,-0.3423,-0.3464,-0.3499,-0.3506,-0.3509,-0.3494,-0.3492,-0.3463,-0.3415,-0.3431,-0.3381,-0.3346,-0.3342,-0.323,-0.3192,-0.3012,-0.2994,-0.2967,-0.3277,-0.3278,-0.3278,0,-0.3082,-0.3178,-0.3219,-0.3247,-0.3342,-0.3364,-0.3405,-0.3456,-0.3481,-0.3513,-0.3518,-0.3518,-0.3496,-0.3457,-0.3395,-0.3403,-0.3326,-0.3323,-0.3194,-0.3187,-0.3045,-0.3025,-0.2978,-0.3276,-0.3276,-0.3276,-0.3276,0,-0.3062,-0.3085,-0.3189,-0.3205,-0.3239,-0.3323,-0.3352,-0.3396,-0.3455,-0.3467,-0.3513,-0.3505,-0.3491,-0.345,-0.34,-0.3281,-0.3323,-0.3193,-0.3161,-0.3067,-0.305,-0.2989,-0.3008,-0.3273,-0.3274,-0.3274,-0.3275,0,-0.2964,-0.3044,-0.3085,-0.3181,-0.3207,-0.322,-0.3311,-0.3328,-0.3406,-0.3423,-0.3432,-0.3482,-0.3426,-0.3394,-0.3319,-0.3259,-0.3104,-0.3116,-0.3001,-0.2957,-0.2807,-0.2834,-0.2717,-0.2641,-0.2961,-0.2959,-0.2957,0,-0.2916,-0.2932,-0.3027,-0.3038,-0.3072,-0.3121,-0.3148,-0.3266,-0.3293,-0.3388,-0.3378,-0.3372,-0.3315,-0.3197,-0.311,-0.2993,-0.2979,-0.2811,-0.2803,-0.2774,-0.2782,-0.2791,-0.2737,-0.2646,-0.2642,-0.2638,-0.2635,0,-0.2798,-0.2835,-0.2861,-0.2897,-0.2926,-0.2967,-0.3022,-0.3045,-0.3171,-0.3191,-0.3191,-0.3162,-0.3101,-0.2937,-0.2829,-0.275,-0.2735,-0.2729,-0.2726,-0.255,-0.2527,-0.2447,-0.2727,-0.2602,-0.2605,-0.2608,-0.2609,-0.2611,-0.2677,-0.2665,-0.2705,-0.2717,-0.2755,-0.2764,-0.2736,-0.2815,-0.2825,-0.2825,-0.2928,-0.2853,-0.2796,-0.2626,-0.2555,-0.241,-0.2479,-0.2331,-0.2371,-0.2387,-0.2298,-0.25,-0.2326,-0.2328,-0.2329,-0.233,-0.2332,0,-0.2508,-0.2513,-0.2521,-0.253,-0.2494,-0.2579,-0.2603,-0.2546,-0.2487,-0.2555,-0.2523,-0.248,-0.2331,-0.231,-0.2189,-0.2087,-0.2047,-0.2044,-0.2044,-0.2009,-0.2195,-0.2165,-0.1913,-0.1913,-0.1913,-0.1913,-0.1913,-0.1914,-0.2419,-0.2359,-0.2368,-0.2252,-0.2253,-0.2147,-0.2116,-0.2065,-0.2073,-0.2006,-0.2029,-0.2111,-0.2106,-0.2174,-0.2027,-0.1932,-0.1887,-0.1819,-0.1861,-0.2027,-0.2058,-0.2088,-0.2063,-0.1794,-0.1794,-0.1594,-0.1592,-0.1591]},{"header":{"parameterUnit":"m.s-1","parameterCategory":2,"la1":30.2991,"la2":30.254,"lo1":-89.0895,"lo2":-89.0444,"dy":0.0017,"dx":0.0017,"nx":28,"ny":28,"refTime":"2025-01-11T09:00:00:Z","depth":"0","parameterNumber":3,"parameterNumberName":"V-component_of_CURRENTS"},"data":[0,0,0,0,0,0,0,0,0,0,0,0,0,0,0,0,0,0,0,0,0,0,0,0,0,0,0,0,0,0,0,0,0,0,0,0,0,0,0,0,0,0,0,0,0,0,0,0,0,0,0,0,0,0,0,0,0,0,-0.0512,-0.0512,0,-0.0422,-0.0421,-0.042,-0.0359,-0.0359,-0.0358,-0.0358,-0.0228,-0.0225,-0.0222,0,0,0,0,0,0,0,0,0,0,0,0,0,-0.0572,-0.0572,-0.0513,-0.0511,-0.051,-0.0422,-0.0421,-0.0419,-0.0359,-0.0359,-0.0358,-0.0358,-0.0229,-0.0225,-0.0222,0,0,0,0,0,0,0,0,0,0,0,0,0,-0.052,-0.0572,-0.0513,-0.047,-0.0465,-0.0422,-0.0421,-0.0419,-0.0359,-0.0359,-0.0358,-0.0357,-0.023,-0.0226,-0.0221,-0.0204,0,0,-0.0207,-0.0205,0,0,0,0,0,0,0,0,-0.0523,-0.0518,-0.0477,-0.0473,-0.0467,-0.0401,-0.0394,-0.0345,-0.0359,-0.0399,-0.0358,-0.0357,-0.0283,-0.0274,-0.0258,-0.0198,-0.0192,-0.0206,-0.0204,-0.0202,-0.02,0,0,0,0,0,0,0,-0.0527,-0.0521,-0.0476,-0.0476,-0.047,-0.0434,-0.0427,-0.0384,-0.0344,-0.0395,-0.0391,-0.0382,-0.028,-0.0263,-0.0255,-0.019,-0.0207,-0.0202,-0.02,-0.0198,-0.0095,-0.0095,0,0,0,0,0,0,-0.0543,-0.0525,-0.0479,-0.0473,-0.0495,-0.0434,-0.0426,-0.0423,-0.0345,-0.0333,-0.0382,-0.0379,-0.0271,-0.026,-0.025,-0.022,-0.0202,-0.0197,-0.0195,-0.0095,-0.0095,-0.0095,0,0,0,0,0,0,-0.0545,-0.054,-0.0483,-0.0497,-0.0487,-0.0434,-0.0431,-0.0421,-0.0404,-0.0336,-0.0323,-0.0375,-0.027,-0.0256,-0.021,-0.0215,-0.0195,-0.0191,-0.0095,-0.0095,-0.0095,-0.0164,0,0,0,0,0,0,-0.0547,-0.0542,-0.0548,-0.0499,-0.0487,-0.0466,-0.0431,-0.042,-0.04,-0.0395,-0.0326,-0.0313,-0.0269,-0.0218,-0.0206,-0.0208,-0.0187,-0.0095,-0.0095,-0.0095,-0.0162,-0.0167,-0.0171,0,0,0,0,0,-0.055,-0.0564,-0.0549,-0.0543,-0.0497,-0.0466,-0.0457,-0.0416,-0.04,-0.0398,-0.0346,-0.0315,-0.021,-0.0214,-0.02,-0.0201,-0.0095,-0.0095,-0.0095,-0.016,-0.0166,-0.0171,0,0,0,0,0,0,-0.0593,-0.0558,-0.054,-0.0543,-0.051,-0.0456,-0.0452,-0.0424,-0.0382,-0.0378,-0.0312,-0.0296,-0.026,-0.0221,-0.0226,-0.0172,-0.0149,-0.0147,-0.0203,-0.0208,-0.0212,-0.023,-0.0183,0,0,0,0,0,-0.0607,-0.0609,-0.0564,-0.0567,-0.0554,-0.0505,-0.0488,-0.0461,-0.0417,-0.0398,-0.0348,-0.0295,-0.025,-0.0222,-0.0179,-0.0146,-0.01,-0.0139,-0.0143,-0.0147,-0.0152,-0.0083,-0.0082,-0.0096,-0.0096,-0.0096,0,0,-0.0624,-0.0605,-0.0605,-0.0576,-0.0548,-0.054,-0.0494,-0.0476,-0.0464,-0.0391,-0.0361,-0.0312,-0.0246,-0.0211,-0.0191,-0.0177,-0.0119,-0.0148,-0.0152,-0.0154,-0.0083,-0.0081,-0.008,-0.0096,-0.0096,-0.0096,0,0,-0.0665,-0.0643,-0.0661,-0.0639,-0.0606,-0.0572,-0.0571,-0.0521,-0.0493,-0.0457,-0.0403,-0.0353,-0.0288,-0.0237,-0.0204,-0.0206,-0.0149,-0.0198,-0.0228,-0.0161,-0.0159,-0.0157,-0.0099,-0.0091,-0.0195,-0.0195,-0.0195,0,-0.0689,-0.0702,-0.066,-0.0669,-0.0656,-0.0592,-0.0603,-0.0565,-0.0505,-0.0478,-0.046,-0.0351,-0.0299,-0.0242,-0.0245,-0.0216,-0.0173,-0.0215,-0.0167,-0.0164,-0.016,-0.0101,-0.0092,-0.0199,-0.0198,-0.0198,-0.0197,0,-0.0741,-0.0748,-0.0756,-0.0744,-0.0723,-0.0722,-0.0665,-0.0638,-0.0595,-0.0547,-0.0486,-0.0408,-0.034,-0.0319,-0.0282,-0.0234,-0.021,-0.0185,-0.0157,-0.0163,-0.01,-0.0089,-0.0203,-0.0202,-0.0201,-0.02,0,0,-0.08,-0.0797,-0.0798,-0.0805,-0.0764,-0.0752,-0.0728,-0.068,-0.0654,-0.0588,-0.0546,-0.0467,-0.0416,-0.0375,-0.0316,-0.0259,-0.0199,-0.0222,-0.0216,-0.017,-0.0056,0.0002,0.0021,-0.0167,-0.0165,-0.0164,-0.0023,0,-0.0853,-0.0898,-0.0869,-0.0891,-0.0906,-0.0837,-0.0817,-0.076,-0.0694,-0.0634,-0.0541,-0.0483,-0.0438,-0.0405,-0.0341,-0.0228,-0.0173,-0.024,-0.0051,-0.0046,0.0003,0.0035,0.0068,0.02,-0.0012,-0.001,-0.0008,0,-0.0912,-0.0933,-0.0979,-0.0966,-0.0963,-0.0959,-0.0902,-0.0872,-0.0767,-0.0712,-0.0628,-0.0549,-0.0448,-0.0417,-0.0232,-0.0277,-0.0182,-0.01,-0.0091,-0.0005,0.0034,0.0175,0.0229,0.0377,0.001,0.0008,0.0007,0,-0.0982,-0.1001,-0.1043,-0.1041,-0.1019,-0.1014,-0.0989,-0.0901,-0.0867,-0.0759,-0.0712,-0.0581,-0.0505,-0.0371,-0.0192,-0.0212,0.0015,0.0016,0.0156,0.0161,0.0244,0.0253,0.0459,0.0131,0.0131,0.0131,0.013,0,-0.1051,-0.1077,-0.1082,-0.1105,-0.1136,-0.1086,-0.1081,-0.1027,-0.0941,-0.0891,-0.0762,-0.0683,-0.0491,-0.0332,-0.0192,0.0035,0.0025,0.0161,0.0209,0.022,0.0226,0.0402,0.0444,0.0136,0.0135,0.0134,0.0133,0,-0.1121,-0.1126,-0.1172,-0.1174,-0.1176,-0.1196,-0.116,-0.1144,-0.1048,-0.0976,-0.0946,-0.0748,-0.0528,-0.0321,-0.0076,0.0049,0.0347,0.032,0.0318,0.0363,0.0612,0.0647,0.0892,0.0972,0.0492,0.0495,0.0497,0,-0.1161,-0.1198,-0.1237,-0.1269,-0.1275,-0.129,-0.1295,-0.1216,-0.1184,-0.1005,-0.0971,-0.0744,-0.0558,-0.0161,0.01,0.0379,0.0471,0.0553,0.0519,0.0649,0.0723,0.0746,0.0795,0.0602,0.0604,0.0607,0.0608,0,-0.123,-0.1245,-0.1283,-0.1362,-0.139,-0.1409,-0.1401,-0.1391,-0.1271,-0.1166,-0.098,-0.0813,-0.0414,-0.0058,0.0304,0.0465,0.0664,0.0607,0.0755,0.0842,0.0868,0.096,0.0475,0.0628,0.0626,0.0625,0.0624,0.0623,-0.1267,-0.1319,-0.1375,-0.1439,-0.1478,-0.1502,-0.15,-0.1452,-0.1369,-0.1173,-0.1009,-0.0703,-0.0209,0.0325,0.0512,0.0904,0.0846,0.1003,0.104,0.1055,0.1125,0.0679,0.0874,0.0874,0.0873,0.0873,0.0873,0,-0.1307,-0.1366,-0.1444,-0.1511,-0.1558,-0.1558,-0.1544,-0.1491,-0.1376,-0.1159,-0.0935,-0.0356,0.013,0.0569,0.1124,0.1326,0.1348,0.1421,0.1461,0.1492,0.1126,0.1123,0.1366,0.1366,0.1366,0.1365,0.1365,0.1365,-0.1328,-0.1414,-0.146,-0.1552,-0.1594,-0.1607,-0.1587,-0.1474,-0.1309,-0.093,-0.0579,-0.0299,0.0329,0.12,0.1696,0.1733,0.1875,0.1865,0.1944,0.1684,0.1647,0.1612,0.1623,0.1966,0.1967,0.2298,0.2301,0.2304]}],[{"header":{"parameterUnit":"m.s-1","parameterCategory":2,"la1":30.2991,"la2":30.254,"lo1":-89.0895,"lo2":-89.0444,"dy":0.0017,"dx":0.0017,"nx":28,"ny":28,"refTime":"2025-01-11T09:00:00:Z","depth":"2","parameterNumber":2,"parameterNumberName":"U-component_of_CURRENTS"},"data":[0,0,0,0,0,0,0,0,0,0,0,0,0,0,0,0,0,0,0,0,0,0,0,0,0,0,0,0,0,0,0,0,0,0,0,0,0,0,0,0,0,0,0,0,0,0,0,0,0,0,0,0,0,0,0,0,0,0,-0.2772,-0.2772,0,-0.2786,-0.2786,-0.2786,-0.2752,-0.2751,-0.2751,-0.275,-0.2704,-0.2704,-0.2704,0,0,0,0,0,0,0,0,0,0,0,0,0,-0.2715,-0.2716,-0.2772,-0.2772,-0.2773,-0.2786,-0.2786,-0.2786,-0.2752,-0.2751,-0.275,-0.2749,-0.2705,-0.2704,-0.2703,0,0,0,0,0,0,0,0,0,0,0,0,0,-0.2733,-0.2716,-0.2772,-0.276,-0.2759,-0.2786,-0.2786,-0.2786,-0.2753,-0.2751,-0.275,-0.2749,-0.2705,-0.2704,-0.2703,-0.2723,0,0,-0.2701,-0.2701,0,0,0,0,0,0,0,0,-0.2732,-0.2734,-0.2761,-0.2761,-0.276,-0.2769,-0.275,-0.2763,-0.2753,-0.2752,-0.275,-0.2748,-0.2723,-0.2721,-0.2723,-0.2721,-0.2719,-0.2701,-0.2701,-0.2701,-0.27,0,0,0,0,0,0,0,-0.2731,-0.2734,-0.2775,-0.2762,-0.2761,-0.2754,-0.2755,-0.2752,-0.2741,-0.2752,-0.275,-0.2757,-0.2722,-0.2724,-0.2722,-0.2719,-0.2701,-0.2701,-0.27,-0.27,-0.2742,-0.2743,0,0,0,0,0,0,-0.2736,-0.2733,-0.2774,-0.2775,-0.2746,-0.2756,-0.2757,-0.2765,-0.2742,-0.2739,-0.2758,-0.2755,-0.2726,-0.2722,-0.272,-0.2751,-0.2701,-0.27,-0.27,-0.274,-0.2742,-0.2744,0,0,0,0,0,0,-0.2735,-0.274,-0.2774,-0.2756,-0.276,-0.2759,-0.2768,-0.2766,-0.277,-0.2748,-0.2742,-0.2764,-0.2724,-0.2721,-0.2724,-0.2749,-0.27,-0.2699,-0.2738,-0.2741,-0.2743,-0.2809,0,0,0,0,0,0,-0.2733,-0.274,-0.2744,-0.2757,-0.2762,-0.2796,-0.2769,-0.2767,-0.2777,-0.2774,-0.2752,-0.2746,-0.2723,-0.2725,-0.2723,-0.2747,-0.2698,-0.2736,-0.2739,-0.2742,-0.2804,-0.2813,-0.282,0,0,0,0,0,-0.2731,-0.2749,-0.2745,-0.275,-0.277,-0.2798,-0.28,-0.2791,-0.2779,-0.2788,-0.2773,-0.2747,-0.2742,-0.2726,-0.2723,-0.2747,-0.2735,-0.2739,-0.2742,-0.2801,-0.2811,-0.282,0,0,0,0,0,0,-0.2726,-0.2748,-0.2743,-0.2765,-0.2782,-0.2793,-0.2802,-0.2801,-0.2798,-0.2791,-0.2764,-0.2758,-0.2771,-0.2755,-0.2738,-0.2769,-0.2736,-0.2739,-0.2782,-0.2791,-0.2799,-0.2794,-0.2698,0,0,0,0,0,-0.2729,-0.2743,-0.2765,-0.278,-0.2793,-0.2799,-0.2808,-0.2808,-0.2811,-0.2808,-0.2796,-0.2785,-0.2786,-0.2783,-0.2778,-0.2796,-0.2767,-0.2811,-0.2819,-0.2826,-0.2822,-0.2806,-0.2811,-0.2755,-0.2755,-0.2755,0,0,-0.2729,-0.2743,-0.275,-0.278,-0.2789,-0.2819,-0.2801,-0.2824,-0.2844,-0.2805,-0.2822,-0.2811,-0.2797,-0.2814,-0.2819,-0.2802,-0.2828,-0.283,-0.2836,-0.2828,-0.281,-0.2815,-0.2819,-0.2757,-0.2757,-0.2756,0,0,-0.2745,-0.2754,-0.2774,-0.2797,-0.2823,-0.2834,-0.2846,-0.2866,-0.2868,-0.289,-0.2868,-0.287,-0.2873,-0.2866,-0.2863,-0.2913,-0.287,-0.2919,-0.2953,-0.2938,-0.2942,-0.2945,-0.2919,-0.2919,-0.2923,-0.2923,-0.2923,0,-0.2744,-0.277,-0.2784,-0.2816,-0.2836,-0.2846,-0.2877,-0.2894,-0.291,-0.2915,-0.2903,-0.2907,-0.2897,-0.2913,-0.2933,-0.2929,-0.2909,-0.2918,-0.2947,-0.2949,-0.2951,-0.2923,-0.2922,-0.2926,-0.2926,-0.2926,-0.2925,0,-0.2775,-0.2801,-0.2819,-0.2859,-0.2886,-0.2914,-0.2945,-0.2965,-0.297,-0.2978,-0.2993,-0.298,-0.2977,-0.2986,-0.2975,-0.2994,-0.2971,-0.2957,-0.2919,-0.296,-0.2929,-0.2927,-0.2932,-0.293,-0.2929,-0.2928,0,0,-0.2751,-0.2826,-0.2829,-0.2851,-0.2909,-0.2929,-0.2979,-0.3013,-0.303,-0.3045,-0.306,-0.3071,-0.3055,-0.3051,-0.3038,-0.3032,-0.3035,-0.3008,-0.3005,-0.2974,-0.2994,-0.2908,-0.2897,-0.3026,-0.3026,-0.3026,-0.2967,0,-0.2763,-0.2822,-0.2862,-0.2913,-0.2942,-0.2981,-0.3022,-0.3056,-0.3074,-0.3094,-0.3089,-0.3096,-0.3084,-0.308,-0.3077,-0.3046,-0.3033,-0.3052,-0.2965,-0.2962,-0.2874,-0.2893,-0.2686,-0.261,-0.2965,-0.2964,-0.2964,0,-0.2769,-0.2807,-0.2862,-0.2929,-0.2946,-0.2982,-0.3031,-0.3071,-0.3112,-0.3126,-0.3139,-0.3132,-0.3137,-0.3114,-0.3076,-0.309,-0.3048,-0.3019,-0.3015,-0.2907,-0.2871,-0.2626,-0.2592,-0.296,-0.296,-0.2961,-0.2961,0,-0.2715,-0.28,-0.2837,-0.2862,-0.2947,-0.2973,-0.3015,-0.3069,-0.3096,-0.3139,-0.3151,-0.3158,-0.3147,-0.3116,-0.3065,-0.3072,-0.3007,-0.3004,-0.2883,-0.2876,-0.2667,-0.2641,-0.2965,-0.2965,-0.2965,-0.2965,-0.2966,0,-0.2697,-0.272,-0.2813,-0.2828,-0.2864,-0.2941,-0.2977,-0.3022,-0.3084,-0.31,-0.3153,-0.3148,-0.3146,-0.3113,-0.307,-0.2964,-0.3007,-0.2882,-0.2854,-0.2685,-0.2663,-0.294,-0.2938,-0.2963,-0.2964,-0.2964,-0.2964,0,-0.2615,-0.2684,-0.2722,-0.2811,-0.2836,-0.2855,-0.2944,-0.2964,-0.3045,-0.3068,-0.3082,-0.3133,-0.3088,-0.3065,-0.3003,-0.2946,-0.287,-0.2818,-0.2617,-0.2567,-0.2749,-0.2752,-0.268,-0.2677,-0.2674,-0.2671,-0.2669,0,-0.2573,-0.2587,-0.2675,-0.2686,-0.2721,-0.2772,-0.2799,-0.2913,-0.2938,-0.3035,-0.3025,-0.3031,-0.2976,-0.2875,-0.2792,-0.2688,-0.2769,-0.2438,-0.2413,-0.2739,-0.272,-0.2727,-0.2733,-0.2162,-0.2156,-0.2151,-0.2147,0,-0.247,-0.2505,-0.2529,-0.2563,-0.2593,-0.2629,-0.2684,-0.2702,-0.2822,-0.2841,-0.2841,-0.2815,-0.2763,-0.2564,-0.2469,-0.2386,-0.2445,-0.2332,-0.2704,-0.2277,-0.2248,-0.223,-0.2253,-0.2102,-0.2107,-0.211,-0.2112,-0.2114,-0.2366,-0.2356,-0.239,-0.2402,-0.2439,-0.2441,-0.2411,-0.2481,-0.2483,-0.2476,-0.2575,-0.247,-0.2457,-0.2197,-0.2081,-0.2002,-0.217,-0.2057,-0.2073,-0.2094,-0.2056,-0.2024,-0.1828,-0.1831,-0.1834,-0.1836,-0.1837,0,-0.2216,-0.2218,-0.2224,-0.2227,-0.2193,-0.2276,-0.2288,-0.2222,-0.2154,-0.2195,-0.216,-0.1923,-0.1802,-0.1803,-0.1622,-0.1585,-0.1577,-0.1504,-0.1493,-0.1538,-0.1577,-0.1514,-0.1142,-0.114,-0.1138,-0.1136,0,0,-0.2137,-0.2077,-0.2079,-0.1966,-0.1967,-0.1863,-0.1828,-0.1761,-0.1745,-0.1624,-0.1578,-0.1706,-0.1748,-0.1447,-0.1375,-0.123,-0.137,-0.1165,-0.1722,-0.1753,-0.179,-0.1893,-0.1844,0,0,0,0,0]},{"header":{"parameterUnit":"m.s-1","parameterCategory":2,"la1":30.2991,"la2":30.254,"lo1":-89.0895,"lo2":-89.0444,"dy":0.0017,"dx":0.0017,"nx":28,"ny":28,"refTime":"2025-01-11T09:00:00:Z","depth":"2","parameterNumber":3,"parameterNumberName":"V-component_of_CURRENTS"},"data":[0,0,0,0,0,0,0,0,0,0,0,0,0,0,0,0,0,0,0,0,0,0,0,0,0,0,0,0,0,0,0,0,0,0,0,0,0,0,0,0,0,0,0,0,0,0,0,0,0,0,0,0,0,0,0,0,0,0,-0.0398,-0.0397,0,-0.032,-0.0319,-0.0318,-0.0267,-0.0266,-0.0266,-0.0266,-0.015,-0.0147,-0.0144,0,0,0,0,0,0,0,0,0,0,0,0,0,-0.0446,-0.0446,-0.0398,-0.0397,-0.0396,-0.032,-0.0319,-0.0318,-0.0267,-0.0266,-0.0266,-0.0266,-0.0151,-0.0148,-0.0144,0,0,0,0,0,0,0,0,0,0,0,0,0,-0.0402,-0.0446,-0.0398,-0.0362,-0.0358,-0.032,-0.0319,-0.0318,-0.0267,-0.0266,-0.0266,-0.0265,-0.0152,-0.0148,-0.0144,-0.0127,0,0,-0.0131,-0.0129,0,0,0,0,0,0,0,0,-0.0405,-0.04,-0.0368,-0.0364,-0.036,-0.0303,-0.0293,-0.0252,-0.0267,-0.0301,-0.0266,-0.0265,-0.0198,-0.019,-0.0176,-0.0122,-0.0117,-0.013,-0.0128,-0.0126,-0.0125,0,0,0,0,0,0,0,-0.0408,-0.0403,-0.0367,-0.0367,-0.0362,-0.033,-0.0324,-0.0285,-0.0252,-0.0298,-0.0294,-0.0286,-0.0195,-0.0181,-0.0173,-0.0115,-0.0131,-0.0127,-0.0124,-0.0123,-0.0031,-0.0031,0,0,0,0,0,0,-0.0422,-0.0407,-0.0369,-0.0365,-0.0382,-0.033,-0.0323,-0.0321,-0.0253,-0.0243,-0.0287,-0.0284,-0.0188,-0.0178,-0.0169,-0.0141,-0.0126,-0.0122,-0.012,-0.0031,-0.0031,-0.0031,0,0,0,0,0,0,-0.0423,-0.042,-0.0372,-0.0383,-0.0375,-0.033,-0.0328,-0.032,-0.0306,-0.0245,-0.0234,-0.0282,-0.0187,-0.0175,-0.0134,-0.0136,-0.012,-0.0117,-0.003,-0.0031,-0.0031,-0.0087,0,0,0,0,0,0,-0.0425,-0.0421,-0.0427,-0.0385,-0.0375,-0.0358,-0.0329,-0.0319,-0.0302,-0.0298,-0.0237,-0.0226,-0.0186,-0.0141,-0.013,-0.013,-0.0113,-0.003,-0.0031,-0.0031,-0.0085,-0.0089,-0.0092,0,0,0,0,0,-0.0427,-0.044,-0.0428,-0.0423,-0.0385,-0.0358,-0.035,-0.0315,-0.0303,-0.0301,-0.0255,-0.0228,-0.0134,-0.0137,-0.0124,-0.0123,-0.003,-0.0031,-0.0031,-0.0083,-0.0088,-0.0092,0,0,0,0,0,0,-0.0463,-0.0435,-0.0421,-0.0424,-0.0396,-0.035,-0.0346,-0.0322,-0.0286,-0.0283,-0.0225,-0.021,-0.0178,-0.0143,-0.0148,-0.0098,-0.0079,-0.0077,-0.0123,-0.0127,-0.0131,-0.0145,-0.011,0,0,0,0,0,-0.0476,-0.0479,-0.0441,-0.0444,-0.0434,-0.0392,-0.0378,-0.0355,-0.0316,-0.0301,-0.0256,-0.021,-0.0169,-0.0143,-0.0105,-0.0074,-0.0033,-0.0066,-0.007,-0.0073,-0.0077,-0.0012,-0.001,-0.0031,-0.0031,-0.0031,0,0,-0.049,-0.0475,-0.0476,-0.0452,-0.0429,-0.0421,-0.0383,-0.0368,-0.0357,-0.0293,-0.0267,-0.0223,-0.0165,-0.0132,-0.0114,-0.0101,-0.0046,-0.0074,-0.0077,-0.0078,-0.0012,-0.001,-0.0008,-0.0031,-0.0031,-0.0031,0,0,-0.0525,-0.0508,-0.0524,-0.0506,-0.0479,-0.0449,-0.0449,-0.0406,-0.0382,-0.035,-0.0303,-0.0258,-0.02,-0.0153,-0.0122,-0.0122,-0.0072,-0.0116,-0.0139,-0.0077,-0.0074,-0.0072,-0.0021,-0.0013,-0.0113,-0.0113,-0.0113,0,-0.0545,-0.0558,-0.0523,-0.0531,-0.0521,-0.0467,-0.0476,-0.0442,-0.039,-0.0367,-0.0352,-0.0254,-0.0207,-0.0153,-0.0154,-0.013,-0.0093,-0.0128,-0.0081,-0.0078,-0.0074,-0.0023,-0.0013,-0.0116,-0.0115,-0.0115,-0.0115,0,-0.059,-0.0597,-0.0604,-0.0596,-0.0578,-0.0578,-0.0528,-0.0504,-0.0468,-0.0425,-0.037,-0.0299,-0.0238,-0.0218,-0.0185,-0.0138,-0.012,-0.0098,-0.0072,-0.0075,-0.0021,-0.001,-0.012,-0.0119,-0.0118,-0.0117,0,0,-0.0642,-0.064,-0.0642,-0.065,-0.0614,-0.0605,-0.0581,-0.0539,-0.0517,-0.0457,-0.042,-0.0345,-0.0299,-0.0263,-0.0209,-0.0155,-0.0097,-0.0124,-0.0119,-0.0078,0.0032,0.0076,0.0092,-0.0069,-0.0067,-0.0066,0.0058,0,-0.0689,-0.073,-0.0704,-0.0725,-0.074,-0.068,-0.0661,-0.0611,-0.0552,-0.0499,-0.0411,-0.0361,-0.0317,-0.029,-0.0225,-0.0127,-0.0072,-0.0134,0.0033,0.0038,0.0074,0.0105,0.0072,0.0183,0.0069,0.0071,0.0072,0,-0.0742,-0.0763,-0.0805,-0.0796,-0.0795,-0.0792,-0.0745,-0.0718,-0.0622,-0.0574,-0.0494,-0.0422,-0.0327,-0.0296,-0.0124,-0.0167,-0.0079,-0.0004,0.0003,0.0071,0.0101,0.017,0.0207,0.009,0.0089,0.0088,0.0086,0,-0.0809,-0.0827,-0.0867,-0.0866,-0.0848,-0.0846,-0.0825,-0.0747,-0.0719,-0.062,-0.058,-0.0455,-0.0389,-0.0259,-0.0096,-0.0111,0.0095,0.0098,0.022,0.0224,0.0244,0.0247,0.021,0.021,0.021,0.021,0.0209,0,-0.0874,-0.09,-0.0906,-0.0929,-0.0962,-0.0917,-0.0918,-0.087,-0.0794,-0.0753,-0.0629,-0.0561,-0.0378,-0.0233,-0.0098,0.0107,0.0102,0.0226,0.0266,0.0223,0.0223,0.0178,0.0172,0.0214,0.0213,0.0212,0.0212,0,-0.0942,-0.0946,-0.0992,-0.0997,-0.1001,-0.1025,-0.0999,-0.0988,-0.0902,-0.0842,-0.0816,-0.0634,-0.0435,-0.0239,-0.0012,0.0108,0.0292,0.0359,0.0293,0.0324,0.0374,0.0364,0.0504,0.0507,0.051,0.0511,0.0513,0,-0.0982,-0.1017,-0.1058,-0.1092,-0.11,-0.1121,-0.113,-0.106,-0.1034,-0.0877,-0.085,-0.0648,-0.048,-0.0117,0.0123,0.0384,0.037,0.049,0.0458,0.0383,0.0408,0.0394,0.0382,0.046,0.0461,0.0461,0.0462,0,-0.1052,-0.1067,-0.1105,-0.1185,-0.1217,-0.124,-0.1239,-0.1235,-0.1129,-0.1038,-0.0876,-0.0727,-0.0371,-0.0073,0.026,0.0402,0.0448,0.0516,0.048,0.0387,0.035,0.0371,0.0359,0.047,0.0469,0.0468,0.0468,0.0468,-0.1093,-0.1143,-0.1198,-0.1265,-0.1308,-0.1337,-0.134,-0.1299,-0.1232,-0.1058,-0.0916,-0.0645,-0.0371,0.0121,0.0349,0.0557,0.055,0.0591,0.0584,0.0577,0.0547,0.0516,0.0661,0.0661,0.0661,0.0661,0.0662,0,-0.1138,-0.1193,-0.127,-0.134,-0.139,-0.1394,-0.1388,-0.1339,-0.1242,-0.1053,-0.0857,-0.0516,-0.0178,0.011,0.0449,0.0644,0.061,0.0665,0.0578,0.057,0.0563,0.0528,0.0639,0.064,0.064,0.064,0,0,-0.1161,-0.1245,-0.1287,-0.1383,-0.1429,-0.145,-0.1436,-0.133,-0.1183,-0.0964,-0.0753,-0.0496,-0.015,0.0079,0.0322,0.0495,0.0478,0.0506,0.0506,0.0367,0.0358,0.0506,0.0442,0,0,0,0,0]}],[{"header":{"parameterUnit":"m.s-1","parameterCategory":2,"la1":30.2991,"la2":30.254,"lo1":-89.0895,"lo2":-89.0444,"dy":0.0017,"dx":0.0017,"nx":28,"ny":28,"refTime":"2025-01-11T09:00:00:Z","depth":"4","parameterNumber":2,"parameterNumberName":"U-component_of_CURRENTS"},"data":[0,0,0,0,0,0,0,0,0,0,0,0,0,0,0,0,0,0,0,0,0,0,0,0,0,0,0,0,0,0,0,0,0,0,0,0,0,0,0,0,0,0,0,0,0,0,0,0,0,0,0,0,0,0,0,0,0,0,-0.1899,-0.1899,0,-0.1961,-0.1962,-0.1962,-0.2002,-0.2002,-0.2003,-0.2003,-0.2054,-0.2055,-0.2056,0,0,0,0,0,0,0,0,0,0,0,0,0,-0.1812,-0.1813,-0.1898,-0.1899,-0.19,-0.1961,-0.1962,-0.1962,-0.2002,-0.2002,-0.2003,-0.2003,-0.2054,-0.2055,-0.2056,0,0,0,0,0,0,0,0,0,0,0,0,0,-0.1857,-0.1813,-0.1898,-0.1929,-0.1932,-0.1961,-0.1962,-0.1963,-0.2002,-0.2002,-0.2003,-0.2003,-0.2053,-0.2055,-0.2056,-0.2053,0,0,-0.2061,-0.2061,0,0,0,0,0,0,0,0,-0.1855,-0.186,-0.1923,-0.1927,-0.1931,-0.1976,-0.195,-0.1993,-0.2002,-0.1973,-0.2003,-0.2004,-0.2027,-0.2031,-0.2039,-0.2055,-0.2058,-0.2061,-0.2062,-0.2062,-0.2063,0,0,0,0,0,0,0,-0.1852,-0.1858,-0.1921,-0.1924,-0.1929,-0.1939,-0.1946,-0.1958,-0.1995,-0.1976,-0.1979,-0.1989,-0.2029,-0.2038,-0.2041,-0.2058,-0.2061,-0.2062,-0.2063,-0.2063,-0.2162,-0.2164,0,0,0,0,0,0,-0.1847,-0.1855,-0.1919,-0.1923,-0.1896,-0.194,-0.1948,-0.1959,-0.1995,-0.2002,-0.1989,-0.1991,-0.2035,-0.2039,-0.2042,-0.2121,-0.2062,-0.2064,-0.2064,-0.2161,-0.2163,-0.2165,0,0,0,0,0,0,-0.1845,-0.1852,-0.1917,-0.1892,-0.1901,-0.1941,-0.1954,-0.196,-0.2002,-0.2005,-0.2011,-0.2027,-0.2035,-0.204,-0.2084,-0.212,-0.2064,-0.2066,-0.2158,-0.2161,-0.2164,-0.2227,0,0,0,0,0,0,-0.1842,-0.1851,-0.1872,-0.1892,-0.1903,-0.1955,-0.1953,-0.1961,-0.2006,-0.201,-0.2039,-0.2043,-0.2036,-0.2082,-0.2086,-0.2121,-0.2067,-0.2156,-0.216,-0.2163,-0.2222,-0.2231,-0.2239,0,0,0,0,0,-0.1839,-0.1862,-0.1873,-0.1881,-0.1925,-0.1957,-0.1964,-0.1992,-0.2007,-0.2031,-0.2054,-0.2044,-0.2105,-0.2085,-0.2088,-0.2125,-0.2155,-0.2159,-0.2163,-0.2219,-0.2229,-0.2239,0,0,0,0,0,0,-0.1837,-0.1868,-0.1881,-0.1913,-0.1943,-0.1965,-0.1994,-0.2012,-0.205,-0.2064,-0.2064,-0.207,-0.2121,-0.2117,-0.2094,-0.2164,-0.2129,-0.2134,-0.2171,-0.2181,-0.2189,-0.2177,-0.2068,0,0,0,0,0,-0.1845,-0.1871,-0.1899,-0.1929,-0.1947,-0.1977,-0.2,-0.2021,-0.205,-0.2069,-0.209,-0.2113,-0.2134,-0.2154,-0.2168,-0.2208,-0.2182,-0.2235,-0.2243,-0.225,-0.2244,-0.2239,-0.2246,-0.2177,-0.2177,-0.2177,0,0,-0.1853,-0.1874,-0.1891,-0.1931,-0.1957,-0.1991,-0.1993,-0.2039,-0.2075,-0.2067,-0.2131,-0.2144,-0.2151,-0.2195,-0.2217,-0.22,-0.2258,-0.2255,-0.2261,-0.2251,-0.2244,-0.225,-0.2256,-0.218,-0.218,-0.2179,0,0,-0.1871,-0.1903,-0.1929,-0.1958,-0.2005,-0.2024,-0.2046,-0.2089,-0.212,-0.2174,-0.2177,-0.2211,-0.2254,-0.226,-0.2267,-0.2329,-0.2299,-0.2347,-0.2382,-0.2378,-0.2383,-0.2387,-0.2366,-0.2367,-0.2353,-0.2354,-0.2354,0,-0.1883,-0.1915,-0.1943,-0.1976,-0.2007,-0.2043,-0.2081,-0.2116,-0.2171,-0.2195,-0.2206,-0.2266,-0.2278,-0.2313,-0.2341,-0.2347,-0.2334,-0.2343,-0.2387,-0.239,-0.2393,-0.237,-0.2371,-0.2357,-0.2357,-0.2356,-0.2356,0,-0.1908,-0.1951,-0.1972,-0.2024,-0.2062,-0.2103,-0.2149,-0.2197,-0.2239,-0.2265,-0.2324,-0.2339,-0.237,-0.2388,-0.2387,-0.2423,-0.2404,-0.2394,-0.2357,-0.2403,-0.2377,-0.2376,-0.2362,-0.2361,-0.236,-0.2359,0,0,-0.1886,-0.1973,-0.1984,-0.2018,-0.2093,-0.2121,-0.219,-0.2247,-0.2288,-0.2343,-0.2387,-0.2432,-0.2441,-0.2449,-0.2455,-0.2459,-0.2478,-0.2446,-0.2445,-0.2415,-0.2461,-0.2303,-0.2287,-0.248,-0.248,-0.248,-0.2434,0,-0.1899,-0.1963,-0.2009,-0.208,-0.2115,-0.2177,-0.2233,-0.2293,-0.2343,-0.2396,-0.2421,-0.2464,-0.2464,-0.2486,-0.2494,-0.2484,-0.248,-0.249,-0.2428,-0.2426,-0.2271,-0.2282,-0.2482,-0.2434,-0.2433,-0.2433,-0.2433,0,-0.1897,-0.1943,-0.2013,-0.2102,-0.2126,-0.218,-0.2266,-0.2322,-0.2398,-0.2438,-0.2482,-0.2501,-0.2532,-0.2522,-0.2514,-0.2524,-0.25,-0.2481,-0.2479,-0.2303,-0.2266,-0.2378,-0.2432,-0.2432,-0.2432,-0.2432,-0.2432,0,-0.1841,-0.1942,-0.1999,-0.2031,-0.2138,-0.2189,-0.2252,-0.2337,-0.2381,-0.2465,-0.2496,-0.2533,-0.2551,-0.2539,-0.2511,-0.2522,-0.2479,-0.2483,-0.231,-0.2299,-0.2428,-0.2424,-0.2461,-0.2461,-0.2462,-0.2462,-0.2462,0,-0.181,-0.1859,-0.1985,-0.2012,-0.2079,-0.2171,-0.2244,-0.231,-0.2399,-0.2429,-0.2512,-0.2516,-0.2558,-0.254,-0.2515,-0.2395,-0.2478,-0.2301,-0.2271,-0.2457,-0.2457,-0.2427,-0.2424,-0.246,-0.246,-0.2461,-0.2461,0,-0.1726,-0.1814,-0.1882,-0.201,-0.2053,-0.2101,-0.223,-0.2266,-0.2374,-0.2414,-0.2441,-0.2508,-0.2476,-0.2481,-0.2448,-0.2369,-0.2293,-0.2231,-0.2418,-0.2402,-0.2117,-0.2119,-0.2029,-0.2023,-0.2018,-0.2013,-0.201,0,-0.1681,-0.1711,-0.1855,-0.1891,-0.1954,-0.2047,-0.2095,-0.2231,-0.2259,-0.2372,-0.2359,-0.2388,-0.2404,-0.2214,-0.2257,-0.2175,-0.2151,-0.2102,-0.2117,-0.209,-0.2071,-0.208,-0.2088,-0.2001,-0.2,-0.1999,-0.1997,0,-0.1582,-0.1654,-0.1705,-0.1782,-0.185,-0.1908,-0.199,-0.1996,-0.2126,-0.2254,-0.2199,-0.217,-0.2126,-0.2087,-0.2032,-0.1983,-0.2132,-0.2048,-0.2059,-0.2073,-0.2056,-0.2044,-0.2058,-0.1979,-0.1982,-0.1984,-0.1985,0,-0.1503,-0.1514,-0.1591,-0.1637,-0.1718,-0.1723,-0.1796,-0.1816,-0.1865,-0.1999,-0.1972,-0.201,-0.2088,-0.1984,-0.1938,-0.1871,-0.1848,-0.1789,-0.1813,-0.1833,-0.1792,-0.1743,-0.1527,0,0,0,0,0,-0.1408,-0.1396,-0.1432,-0.1471,-0.1546,-0.1584,-0.1693,-0.1769,-0.1904,-0.1805,-0.1883,-0.1833,-0.1767,-0.1795,-0.1681,-0.1854,-0.1858,-0.1715,-0.1805,-0.188,-0.1901,-0.1871,0,0,0,0,0,0,-0.1342,-0.1368,-0.1374,-0.1316,-0.1309,-0.1364,-0.1423,-0.152,-0.1477,-0.1624,-0.1588,-0.171,-0.1665,-0.1784,-0.1634,-0.1643,-0.1659,-0.176,-0.1755,-0.1868,-0.1887,-0.1904,-0.188,0,0,0,0,0]},{"header":{"parameterUnit":"m.s-1","parameterCategory":2,"la1":30.2991,"la2":30.254,"lo1":-89.0895,"lo2":-89.0444,"dy":0.0017,"dx":0.0017,"nx":28,"ny":28,"refTime":"2025-01-11T09:00:00:Z","depth":"4","parameterNumber":3,"parameterNumberName":"V-component_of_CURRENTS"},"data":[0,0,0,0,0,0,0,0,0,0,0,0,0,0,0,0,0,0,0,0,0,0,0,0,0,0,0,0,0,0,0,0,0,0,0,0,0,0,0,0,0,0,0,0,0,0,0,0,0,0,0,0,0,0,0,0,0,0,-0.0261,-0.0261,0,-0.0217,-0.0217,-0.0216,-0.0187,-0.0187,-0.0187,-0.0187,-0.0106,-0.0104,-0.0102,0,0,0,0,0,0,0,0,0,0,0,0,0,-0.0278,-0.0279,-0.0261,-0.0261,-0.026,-0.0217,-0.0217,-0.0216,-0.0187,-0.0187,-0.0187,-0.0187,-0.0107,-0.0104,-0.0102,0,0,0,0,0,0,0,0,0,0,0,0,0,-0.0256,-0.0279,-0.0261,-0.0241,-0.0239,-0.0217,-0.0217,-0.0216,-0.0187,-0.0187,-0.0187,-0.0187,-0.0108,-0.0105,-0.0102,-0.0087,0,0,-0.0092,-0.0091,0,0,0,0,0,0,0,0,-0.0257,-0.0255,-0.0245,-0.0242,-0.024,-0.0208,-0.0193,-0.0171,-0.0188,-0.0207,-0.0187,-0.0187,-0.0137,-0.0132,-0.0124,-0.0083,-0.008,-0.0092,-0.009,-0.0089,-0.0088,0,0,0,0,0,0,0,-0.0259,-0.0257,-0.0243,-0.0244,-0.0241,-0.022,-0.0217,-0.0189,-0.0173,-0.0205,-0.0203,-0.0199,-0.0135,-0.0127,-0.0122,-0.0079,-0.0092,-0.0089,-0.0088,-0.0086,-0.0021,-0.0021,0,0,0,0,0,0,-0.0268,-0.0259,-0.0245,-0.0242,-0.0249,-0.022,-0.0216,-0.0218,-0.0174,-0.0167,-0.0199,-0.0197,-0.0132,-0.0125,-0.0119,-0.0098,-0.0089,-0.0086,-0.0084,-0.0021,-0.0021,-0.0021,0,0,0,0,0,0,-0.0269,-0.0267,-0.0247,-0.0249,-0.0245,-0.022,-0.0222,-0.0217,-0.0212,-0.017,-0.0162,-0.0199,-0.0132,-0.0123,-0.0095,-0.0094,-0.0085,-0.0082,-0.0021,-0.0021,-0.0021,-0.0057,0,0,0,0,0,0,-0.0269,-0.0268,-0.0275,-0.025,-0.0245,-0.024,-0.0222,-0.0217,-0.021,-0.0208,-0.0167,-0.0159,-0.0131,-0.01,-0.0092,-0.009,-0.008,-0.0021,-0.0021,-0.0021,-0.0055,-0.0058,-0.006,0,0,0,0,0,-0.027,-0.0281,-0.0276,-0.0275,-0.0256,-0.024,-0.0236,-0.0216,-0.021,-0.021,-0.0181,-0.0161,-0.0095,-0.0097,-0.0088,-0.0085,-0.0021,-0.0021,-0.0021,-0.0054,-0.0058,-0.006,0,0,0,0,0,0,-0.029,-0.0278,-0.0273,-0.0279,-0.0264,-0.0235,-0.0236,-0.0222,-0.02,-0.02,-0.0159,-0.0149,-0.0126,-0.0102,-0.0105,-0.0068,-0.0056,-0.0054,-0.0084,-0.0087,-0.0089,-0.0097,-0.0077,0,0,0,0,0,-0.03,-0.0307,-0.0286,-0.0292,-0.0287,-0.0264,-0.0256,-0.0244,-0.022,-0.0211,-0.0181,-0.0149,-0.012,-0.0101,-0.0075,-0.0051,-0.002,-0.0045,-0.0047,-0.0049,-0.005,0.0003,0.0005,-0.0022,-0.0022,-0.0022,0,0,-0.0309,-0.0304,-0.0307,-0.0297,-0.0285,-0.0283,-0.0259,-0.0254,-0.0248,-0.0205,-0.0189,-0.0159,-0.0117,-0.0093,-0.008,-0.0071,-0.0026,-0.0049,-0.0052,-0.0051,0.0003,0.0006,0.0008,-0.0022,-0.0022,-0.0022,0,0,-0.0332,-0.0327,-0.0341,-0.0332,-0.0321,-0.0303,-0.0305,-0.028,-0.0266,-0.0247,-0.0215,-0.0181,-0.0142,-0.0105,-0.0082,-0.0081,-0.0045,-0.0079,-0.0091,-0.004,-0.0037,-0.0034,0.0003,0.001,-0.0075,-0.0076,-0.0076,0,-0.0345,-0.036,-0.0341,-0.035,-0.0348,-0.0316,-0.0326,-0.0304,-0.0273,-0.0258,-0.0249,-0.018,-0.0145,-0.0101,-0.0101,-0.0085,-0.0058,-0.0083,-0.0043,-0.0039,-0.0035,0.0002,0.001,-0.0077,-0.0077,-0.0077,-0.0077,0,-0.0375,-0.0388,-0.0394,-0.0396,-0.0387,-0.0392,-0.0361,-0.0348,-0.0328,-0.03,-0.026,-0.0207,-0.0164,-0.0147,-0.0122,-0.0081,-0.0072,-0.0056,-0.0036,-0.0035,0.0005,0.0014,-0.008,-0.0079,-0.0079,-0.0078,0,0,-0.0405,-0.0416,-0.042,-0.0433,-0.0416,-0.0415,-0.0399,-0.0375,-0.0365,-0.032,-0.0297,-0.0236,-0.0203,-0.0176,-0.0135,-0.0087,-0.0037,-0.0066,-0.0062,-0.003,0.0065,0.0058,0.0067,-0.0015,-0.0014,-0.0013,0.008,0,-0.0438,-0.0476,-0.0463,-0.0489,-0.0505,-0.047,-0.0461,-0.043,-0.0392,-0.0358,-0.0287,-0.0254,-0.0214,-0.0197,-0.0139,-0.0064,-0.0016,-0.0065,0.006,0.0064,0.0057,0.0076,-0.0008,0.0087,0.0089,0.009,0.0091,0,-0.0472,-0.0495,-0.0536,-0.0547,-0.0549,-0.0556,-0.0535,-0.052,-0.0454,-0.0422,-0.036,-0.0306,-0.0226,-0.0199,-0.0057,-0.0092,-0.002,0.004,0.0045,0.0058,0.0073,0.0088,0.0107,0.0106,0.0105,0.0104,0.0103,0,-0.0515,-0.0543,-0.0583,-0.0588,-0.0591,-0.06,-0.0595,-0.0546,-0.0534,-0.0463,-0.044,-0.0335,-0.0286,-0.0175,-0.0044,-0.0052,0.011,0.0118,0.0181,0.0181,0.0175,0.0171,0.0215,0.0214,0.0214,0.0214,0.0214,0,-0.0555,-0.0586,-0.0614,-0.0637,-0.068,-0.0657,-0.0677,-0.0648,-0.0602,-0.0581,-0.0482,-0.0435,-0.0278,-0.0164,-0.0049,0.0096,0.0112,0.0184,0.021,0.0156,0.0149,0.0181,0.0176,0.0217,0.0217,0.0216,0.0215,0,-0.0593,-0.0611,-0.0662,-0.0692,-0.0707,-0.0738,-0.0749,-0.0751,-0.0698,-0.0664,-0.0646,-0.0507,-0.0354,-0.0193,-0.0005,0.0081,0.0223,0.0268,0.0195,0.0214,0.0259,0.0251,0.0344,0.0345,0.0345,0.0346,0.0346,0,-0.0614,-0.0648,-0.0716,-0.0757,-0.0779,-0.0819,-0.0844,-0.0811,-0.0799,-0.0701,-0.0681,-0.0536,-0.0427,-0.0155,0.0004,0.0226,0.0252,0.0315,0.0291,0.0259,0.0275,0.0266,0.0257,0.0347,0.0347,0.0347,0.0347,0,-0.0653,-0.0684,-0.0727,-0.0819,-0.087,-0.091,-0.0934,-0.0932,-0.0871,-0.083,-0.0691,-0.0537,-0.0362,-0.0153,0.002,0.0176,0.027,0.0321,0.032,0.0299,0.0263,0.0276,0.0267,0.0349,0.0349,0.0349,0.0349,0,-0.0678,-0.0723,-0.079,-0.0862,-0.0934,-0.0971,-0.0981,-0.0944,-0.0917,-0.0794,-0.0751,-0.0541,-0.0418,-0.0179,-0.0017,0.0136,0.0167,0.0201,0.0207,0.0207,0.0137,0.007,0.0124,0,0,0,0,0,-0.0692,-0.0745,-0.0824,-0.0899,-0.097,-0.1001,-0.1022,-0.1011,-0.0956,-0.0863,-0.0798,-0.0624,-0.0353,-0.0231,-0.0078,-0.0034,0.0169,0.0147,0.0205,0.0359,0.0357,0.0298,0,0,0,0,0,0,-0.0703,-0.0781,-0.0823,-0.0909,-0.0961,-0.1023,-0.1035,-0.1001,-0.0932,-0.0855,-0.0706,-0.0603,-0.0341,-0.0436,-0.0077,-0.003,0.0022,0.0282,0.0284,0.0361,0.0359,0.0357,0.0295,0,0,0,0,0]}]]